Time,TemperatureF,DewpointF,PressureIn,WindDirection,WindDirectionDegrees,WindSpeedMPH,WindSpeedGustMPH,Humidity,HourlyPrecipIn,Conditions,Clouds,dailyrainin,SoftwareType,DateUTC
2013-06-22 00:00:00,64.9,56.4,30.23,WSW,248,7.0,7.0,74,0.00,,,0.00,Wunderground v.1.15,2013-06-22 04:00:00,
2013-06-22 00:10:00,64.7,57.3,30.23,SW,225,6.0,37.0,77,0.00,,,0.00,Wunderground v.1.15,2013-06-22 04:10:00,
2013-06-22 00:20:00,64.6,57.2,30.23,SW,220,6.0,6.0,77,0.00,,,0.00,Wunderground v.1.15,2013-06-22 04:20:00,
2013-06-22 00:30:00,64.6,57.2,30.23,WSW,253,6.0,37.0,77,0.00,,,0.00,Wunderground v.1.15,2013-06-22 04:30:00,
2013-06-22 00:40:00,64.6,57.9,30.23,WSW,246,6.0,6.0,79,0.00,,,0.00,Wunderground v.1.15,2013-06-22 04:40:00,
2013-06-22 00:50:00,64.4,57.7,30.23,SSW,212,6.0,37.0,79,0.00,,,0.00,Wunderground v.1.15,2013-06-22 04:50:00,
2013-06-22 01:00:00,64.4,57.7,30.23,WSW,248,6.0,37.0,79,0.00,,,0.00,Wunderground v.1.15,2013-06-22 05:00:00,
2013-06-22 01:10:00,64.2,57.9,30.23,SW,214,6.0,6.0,80,0.00,,,0.00,Wunderground v.1.15,2013-06-22 05:10:00,
2013-06-22 01:20:00,64.2,57.9,30.23,WSW,238,6.0,6.0,80,0.00,,,0.00,Wunderground v.1.15,2013-06-22 05:20:00,
2013-06-22 01:30:00,64.1,57.5,30.22,SW,228,6.0,37.0,79,0.00,,,0.00,Wunderground v.1.15,2013-06-22 05:30:00,
2013-06-22 01:40:00,64.2,57.5,30.22,WSW,248,6.0,6.0,79,0.00,,,0.00,Wunderground v.1.15,2013-06-22 05:40:00,
2013-06-22 01:50:00,64.2,57.2,30.22,SSW,205,7.0,7.0,78,0.00,,,0.00,Wunderground v.1.15,2013-06-22 05:50:00,
2013-06-22 02:00:00,64.2,57.2,30.22,SW,226,7.0,37.0,78,0.00,,,0.00,Wunderground v.1.15,2013-06-22 06:00:00,
2013-06-22 02:10:00,64.1,57.5,30.23,West,259,7.0,7.0,79,0.00,,,0.00,Wunderground v.1.15,2013-06-22 06:10:00,
2013-06-22 02:20:00,64.0,57.4,30.23,WSW,256,6.0,37.0,79,0.00,,,0.00,Wunderground v.1.15,2013-06-22 06:20:00,
2013-06-22 02:30:00,64.0,57.4,30.23,SW,228,7.0,37.0,79,0.00,,,0.00,Wunderground v.1.15,2013-06-22 06:30:00,
2013-06-22 02:40:00,64.1,57.1,30.23,WSW,249,7.0,7.0,78,0.00,,,0.00,Wunderground v.1.15,2013-06-22 06:40:00,
2013-06-22 02:50:00,64.1,57.1,30.23,SW,226,7.0,37.0,78,0.00,,,0.00,Wunderground v.1.15,2013-06-22 06:50:00,
2013-06-22 03:00:00,64.1,57.1,30.23,WSW,243,7.0,7.0,78,0.00,,,0.00,Wunderground v.1.15,2013-06-22 07:00:00,
2013-06-22 03:10:00,64.0,57.4,30.23,WNW,298,7.0,7.0,79,0.00,,,0.00,Wunderground v.1.15,2013-06-22 07:10:00,
2013-06-22 03:20:00,63.9,57.3,30.23,WSW,250,6.0,37.0,79,0.00,,,0.00,Wunderground v.1.15,2013-06-22 07:20:00,
2013-06-22 03:30:00,63.9,57.6,30.23,West,265,6.0,37.0,80,0.00,,,0.00,Wunderground v.1.15,2013-06-22 07:30:00,
2013-06-22 03:40:00,64.0,57.4,30.22,SW,232,6.0,37.0,79,0.00,,,0.00,Wunderground v.1.15,2013-06-22 07:40:00,
2013-06-22 03:50:00,64.1,57.5,30.23,WSW,243,6.0,37.0,79,0.00,,,0.00,Wunderground v.1.15,2013-06-22 07:50:00,
2013-06-22 04:00:00,64.1,57.5,30.23,West,269,6.0,6.0,79,0.00,,,0.00,Wunderground v.1.15,2013-06-22 08:00:00,
2013-06-22 04:10:00,64.0,57.7,30.23,West,263,5.0,5.0,80,0.00,,,0.00,Wunderground v.1.15,2013-06-22 08:10:00,
2013-06-22 04:20:00,64.0,58.1,30.22,WSW,246,5.0,5.0,81,0.00,,,0.00,Wunderground v.1.15,2013-06-22 08:20:00,
2013-06-22 04:30:00,64.0,58.4,30.22,SW,222,5.0,37.0,82,0.00,,,0.00,Wunderground v.1.15,2013-06-22 08:30:00,
2013-06-22 04:40:00,64.1,58.8,30.22,SW,232,6.0,37.0,83,0.00,,,0.00,Wunderground v.1.15,2013-06-22 08:40:00,
2013-06-22 04:50:00,64.1,58.8,30.22,SSW,195,6.0,37.0,83,0.00,,,0.00,Wunderground v.1.15,2013-06-22 08:50:00,
2013-06-22 05:00:00,64.0,58.7,30.22,SW,229,6.0,37.0,83,0.00,,,0.00,Wunderground v.1.15,2013-06-22 09:00:00,
2013-06-22 05:10:00,64.0,58.7,30.22,WSW,250,6.0,37.0,83,0.00,,,0.00,Wunderground v.1.15,2013-06-22 09:10:00,
2013-06-22 05:20:00,64.0,59.1,30.22,WSW,249,5.0,37.0,84,0.00,,,0.00,Wunderground v.1.15,2013-06-22 09:20:00,
2013-06-22 05:30:00,63.9,59.3,30.22,WSW,250,5.0,5.0,85,0.00,,,0.00,Wunderground v.1.15,2013-06-22 09:30:00,
2013-06-22 05:40:00,63.9,59.3,30.23,SW,226,5.0,37.0,85,0.00,,,0.00,Wunderground v.1.15,2013-06-22 09:40:00,
2013-06-22 05:50:00,64.2,59.6,30.23,SW,218,6.0,37.0,85,0.00,,,0.00,Wunderground v.1.15,2013-06-22 09:50:00,
2013-06-22 06:00:00,64.4,59.8,30.23,WSW,253,5.0,37.0,85,0.00,,,0.00,Wunderground v.1.15,2013-06-22 10:00:00,
2013-06-22 06:10:00,64.6,59.7,30.23,WSW,239,7.0,37.0,84,0.00,,,0.00,Wunderground v.1.15,2013-06-22 10:10:00,
2013-06-22 06:20:00,64.8,60.2,30.23,SW,236,6.0,37.0,85,0.00,,,0.00,Wunderground v.1.15,2013-06-22 10:20:00,
2013-06-22 06:30:00,65.0,60.4,30.23,WNW,287,6.0,6.0,85,0.00,,,0.00,Wunderground v.1.15,2013-06-22 10:30:00,
2013-06-22 06:40:00,65.1,60.5,30.23,SSW,207,7.0,7.0,85,0.00,,,0.00,Wunderground v.1.15,2013-06-22 10:40:00,
2013-06-22 06:50:00,65.3,60.7,30.23,WSW,240,6.0,37.0,85,0.00,,,0.00,Wunderground v.1.15,2013-06-22 10:50:00,
2013-06-22 07:00:00,65.6,60.6,30.23,SW,229,6.0,37.0,84,0.00,,,0.00,Wunderground v.1.15,2013-06-22 11:00:00,
2013-06-22 07:10:00,66.0,61.0,30.23,WSW,245,7.0,7.0,84,0.00,,,0.00,Wunderground v.1.15,2013-06-22 11:10:00,
2013-06-22 07:20:00,66.0,61.0,30.23,WSW,246,7.0,37.0,84,0.00,,,0.00,Wunderground v.1.15,2013-06-22 11:20:00,
2013-06-22 07:30:00,65.6,61.0,30.22,West,261,8.0,8.0,85,0.00,,,0.00,Wunderground v.1.15,2013-06-22 11:30:00,
2013-06-22 07:40:00,65.7,61.1,30.22,West,263,8.0,8.0,85,0.00,,,0.00,Wunderground v.1.15,2013-06-22 11:40:00,
2013-06-22 07:50:00,66.0,61.4,30.22,WSW,253,7.0,37.0,85,0.00,,,0.00,Wunderground v.1.15,2013-06-22 11:50:00,
2013-06-22 08:00:00,66.1,61.1,30.23,SW,226,8.0,37.0,84,0.00,,,0.00,Wunderground v.1.15,2013-06-22 12:00:00,
2013-06-22 08:11:00,66.5,61.5,30.22,SW,232,7.0,37.0,84,0.00,,,0.00,Wunderground v.1.15,2013-06-22 12:11:00,
2013-06-22 08:20:00,66.9,61.6,30.22,WSW,243,7.0,7.0,83,0.00,,,0.00,Wunderground v.1.15,2013-06-22 12:20:00,
2013-06-22 08:30:00,67.0,61.7,30.22,SSW,212,7.0,7.0,83,0.00,,,0.00,Wunderground v.1.15,2013-06-22 12:30:00,
2013-06-22 08:40:00,67.5,61.5,30.22,WSW,253,6.0,37.0,81,0.00,,,0.00,Wunderground v.1.15,2013-06-22 12:40:00,
2013-06-22 08:50:00,67.5,61.5,30.22,SW,222,7.0,37.0,81,0.00,,,0.00,Wunderground v.1.15,2013-06-22 12:50:00,
2013-06-22 09:00:00,67.9,61.1,30.22,West,275,7.0,37.0,79,0.00,,,0.00,Wunderground v.1.15,2013-06-22 13:00:00,
2013-06-22 09:10:00,68.2,61.8,30.22,WSW,256,8.0,8.0,80,0.00,,,0.00,Wunderground v.1.15,2013-06-22 13:10:00,
2013-06-22 09:20:00,68.3,60.8,30.22,WNW,294,7.0,7.0,77,0.00,,,0.00,Wunderground v.1.15,2013-06-22 13:20:00,
2013-06-22 09:30:00,68.3,61.2,30.22,SSW,210,7.0,7.0,78,0.00,,,0.00,Wunderground v.1.15,2013-06-22 13:30:00,
2013-06-22 09:40:00,68.8,62.0,30.22,SW,219,7.0,37.0,79,0.00,,,0.00,Wunderground v.1.15,2013-06-22 13:40:00,
2013-06-22 09:50:00,68.4,61.6,30.21,SW,215,9.0,37.0,79,0.00,,,0.00,Wunderground v.1.15,2013-06-22 13:50:00,
2013-06-22 10:00:00,68.4,62.7,30.21,SSE,163,8.0,8.0,82,0.00,,,0.00,Wunderground v.1.15,2013-06-22 14:00:00,
2013-06-22 10:10:00,68.6,62.2,30.22,SW,224,8.0,37.0,80,0.00,,,0.00,Wunderground v.1.15,2013-06-22 14:10:00,
2013-06-22 10:20:00,68.7,63.0,30.22,WSW,238,7.0,7.0,82,0.00,,,0.00,Wunderground v.1.15,2013-06-22 14:20:00,
2013-06-22 10:30:00,69.0,62.6,30.23,South,177,6.0,6.0,80,0.00,,,0.00,Wunderground v.1.15,2013-06-22 14:30:00,
2013-06-22 10:40:00,69.1,62.3,30.23,SW,219,8.0,8.0,79,0.00,,,0.00,Wunderground v.1.15,2013-06-22 14:40:00,
2013-06-22 10:50:00,68.4,62.7,30.23,West,264,9.0,9.0,82,0.00,,,0.00,Wunderground v.1.15,2013-06-22 14:50:00,
2013-06-22 11:00:00,68.9,62.8,30.23,SW,229,9.0,37.0,81,0.00,,,0.00,Wunderground v.1.15,2013-06-22 15:00:00,
2013-06-22 11:10:00,68.7,62.6,30.23,WNW,291,9.0,9.0,81,0.00,,,0.00,Wunderground v.1.15,2013-06-22 15:10:00,
2013-06-22 11:20:00,69.0,62.6,30.23,WSW,252,8.0,8.0,80,0.00,,,0.00,Wunderground v.1.15,2013-06-22 15:20:00,
2013-06-22 11:30:00,69.9,63.1,30.22,SW,229,7.0,7.0,79,0.00,,,0.00,Wunderground v.1.15,2013-06-22 15:30:00,
2013-06-22 11:40:00,70.1,63.3,30.23,SW,222,8.0,37.0,79,0.00,,,0.00,Wunderground v.1.15,2013-06-22 15:40:00,
2013-06-22 11:50:00,69.8,63.3,30.23,West,276,8.0,37.0,80,0.00,,,0.00,Wunderground v.1.15,2013-06-22 15:50:00,
2013-06-22 12:00:00,70.9,63.7,30.23,SSW,194,7.0,7.0,78,0.00,,,0.00,Wunderground v.1.15,2013-06-22 16:00:00,
2013-06-22 12:10:00,71.3,63.7,30.23,WSW,255,6.0,37.0,77,0.00,,,0.00,Wunderground v.1.15,2013-06-22 16:10:00,
2013-06-22 12:20:00,72.3,62.4,30.23,SSW,203,7.0,37.0,71,0.00,,,0.00,Wunderground v.1.15,2013-06-22 16:20:00,
2013-06-22 12:30:00,72.9,61.3,30.23,WSW,248,8.0,37.0,67,0.00,,,0.00,Wunderground v.1.15,2013-06-22 16:30:00,
2013-06-22 12:40:00,73.1,61.1,30.23,West,271,9.0,9.0,66,0.00,,,0.00,Wunderground v.1.15,2013-06-22 16:40:00,
2013-06-22 12:50:00,72.7,59.4,30.23,West,262,8.0,8.0,63,0.00,,,0.00,Wunderground v.1.15,2013-06-22 16:50:00,
2013-06-22 13:00:00,72.4,57.3,30.23,WSW,238,9.0,37.0,59,0.00,,,0.00,Wunderground v.1.15,2013-06-22 17:00:00,
2013-06-22 13:10:00,72.7,57.5,30.23,NW,311,10.0,10.0,59,0.00,,,0.00,Wunderground v.1.15,2013-06-22 17:10:00,
2013-06-22 13:20:00,73.5,58.8,30.22,WSW,256,8.0,37.0,60,0.00,,,0.00,Wunderground v.1.15,2013-06-22 17:20:00,
2013-06-22 13:30:00,73.6,58.4,30.22,SW,235,8.0,37.0,59,0.00,,,0.00,Wunderground v.1.15,2013-06-22 17:30:00,
2013-06-22 13:40:00,73.7,58.9,30.22,SW,231,8.0,37.0,60,0.00,,,0.00,Wunderground v.1.15,2013-06-22 17:40:00,
2013-06-22 13:50:00,72.8,59.0,30.22,South,190,9.0,37.0,62,0.00,,,0.00,Wunderground v.1.15,2013-06-22 17:50:00,
2013-06-22 14:00:00,72.6,60.2,30.21,West,267,8.0,8.0,65,0.00,,,0.00,Wunderground v.1.15,2013-06-22 18:00:00,
2013-06-22 14:10:00,71.9,60.3,30.21,SW,224,8.0,8.0,67,0.00,,,0.00,Wunderground v.1.15,2013-06-22 18:10:00,
2013-06-22 14:20:00,72.4,63.6,30.21,West,273,6.0,6.0,74,0.00,,,0.00,Wunderground v.1.15,2013-06-22 18:20:00,
2013-06-22 14:30:00,72.3,63.2,30.21,SSE,153,6.0,6.0,73,0.00,,,0.00,Wunderground v.1.15,2013-06-22 18:30:00,
2013-06-22 14:40:00,71.5,63.2,30.21,SW,226,6.0,37.0,75,0.00,,,0.00,Wunderground v.1.15,2013-06-22 18:40:00,
2013-06-22 14:50:00,70.9,63.7,30.21,West,262,7.0,7.0,78,0.00,,,0.00,Wunderground v.1.15,2013-06-22 18:50:00,
2013-06-22 15:00:00,71.6,62.9,30.21,WSW,253,6.0,37.0,74,0.00,,,0.00,Wunderground v.1.15,2013-06-22 19:00:00,
2013-06-22 15:10:00,72.3,63.9,30.20,SSW,204,5.0,5.0,75,0.00,,,0.00,Wunderground v.1.15,2013-06-22 19:10:00,
2013-06-22 15:20:00,71.7,63.7,30.20,SSW,211,6.0,37.0,76,0.00,,,0.00,Wunderground v.1.15,2013-06-22 19:20:00,
2013-06-22 15:30:00,70.5,62.9,30.20,SSW,205,7.0,7.0,77,0.00,,,0.00,Wunderground v.1.15,2013-06-22 19:30:00,
2013-06-22 15:40:00,69.8,63.0,30.20,SW,232,7.0,37.0,79,0.00,,,0.00,Wunderground v.1.15,2013-06-22 19:40:00,
2013-06-22 15:50:00,69.3,63.2,30.19,West,264,8.0,8.0,81,0.00,,,0.00,Wunderground v.1.15,2013-06-22 19:50:00,
2013-06-22 16:00:00,69.0,62.9,30.19,SSE,148,9.0,37.0,81,0.00,,,0.00,Wunderground v.1.15,2013-06-22 20:00:00,
2013-06-22 16:10:00,68.2,62.1,30.19,SW,229,10.0,37.0,81,0.00,,,0.00,Wunderground v.1.15,2013-06-22 20:10:00,
2013-06-22 16:20:00,68.0,62.3,30.19,South,187,10.0,10.0,82,0.00,,,0.00,Wunderground v.1.15,2013-06-22 20:20:00,
2013-06-22 16:30:00,68.5,63.1,30.19,WSW,238,8.0,37.0,83,0.00,,,0.00,Wunderground v.1.15,2013-06-22 20:30:00,
2013-06-22 16:40:00,67.9,62.5,30.18,West,262,9.0,9.0,83,0.00,,,0.00,Wunderground v.1.15,2013-06-22 20:40:00,
2013-06-22 16:50:00,67.9,62.5,30.18,SW,231,9.0,9.0,83,0.00,,,0.00,Wunderground v.1.15,2013-06-22 20:50:00,
2013-06-22 17:00:00,68.1,62.7,30.17,South,178,9.0,9.0,83,0.00,,,0.00,Wunderground v.1.15,2013-06-22 21:00:00,
2013-06-22 17:10:00,67.8,62.8,30.17,SSW,200,10.0,37.0,84,0.00,,,0.00,Wunderground v.1.15,2013-06-22 21:10:00,
2013-06-22 17:30:00,68.2,63.5,30.17,SW,236,8.0,8.0,85,0.00,,,0.00,Wunderground v.1.15,2013-06-22 21:30:00,
2013-06-22 17:40:00,68.4,63.4,30.17,WSW,240,7.0,37.0,84,0.00,,,0.00,Wunderground v.1.15,2013-06-22 21:40:00,
2013-06-22 17:50:00,68.1,63.1,30.17,SSW,207,9.0,37.0,84,0.00,,,0.00,Wunderground v.1.15,2013-06-22 21:50:00,
2013-06-22 18:00:00,67.7,62.7,30.17,WSW,251,10.0,10.0,84,0.00,,,0.00,Wunderground v.1.15,2013-06-22 22:00:00,
2013-06-22 18:10:00,67.9,62.9,30.17,SSW,197,8.0,8.0,84,0.00,,,0.00,Wunderground v.1.15,2013-06-22 22:10:00,
2013-06-22 18:20:00,67.6,62.6,30.17,SE,135,9.0,9.0,84,0.00,,,0.00,Wunderground v.1.15,2013-06-22 22:20:00,
2013-06-22 18:30:00,67.7,63.0,30.17,SW,231,7.0,7.0,85,0.00,,,0.00,Wunderground v.1.15,2013-06-22 22:30:00,
2013-06-22 18:40:00,67.1,62.8,30.17,West,276,8.0,37.0,86,0.00,,,0.00,Wunderground v.1.15,2013-06-22 22:40:00,
2013-06-22 18:50:00,66.6,62.6,30.16,West,278,8.0,8.0,87,0.00,,,0.00,Wunderground v.1.15,2013-06-22 22:50:00,
2013-06-22 19:00:00,66.1,62.1,30.16,SW,231,7.0,7.0,87,0.00,,,0.00,Wunderground v.1.15,2013-06-22 23:00:00,
2013-06-22 19:10:00,65.9,62.2,30.16,SW,221,8.0,8.0,88,0.00,,,0.00,Wunderground v.1.15,2013-06-22 23:10:00,
2013-06-22 19:20:00,65.8,62.1,30.16,ESE,110,8.0,8.0,88,0.00,,,0.00,Wunderground v.1.15,2013-06-22 23:20:00,
2013-06-22 19:30:00,65.6,62.3,30.16,WSW,238,7.0,37.0,89,0.00,,,0.00,Wunderground v.1.15,2013-06-22 23:30:00,
2013-06-22 19:40:00,65.4,62.1,30.16,SW,218,8.0,37.0,89,0.00,,,0.00,Wunderground v.1.15,2013-06-22 23:40:00,
2013-06-22 19:50:00,65.1,62.4,30.16,SW,222,7.0,37.0,91,0.00,,,0.00,Wunderground v.1.15,2013-06-22 23:50:00,
2013-06-22 20:00:00,64.9,62.2,30.16,SW,228,8.0,37.0,91,0.00,,,0.00,Wunderground v.1.15,2013-06-23 00:00:00,
2013-06-22 20:10:00,64.7,62.3,30.15,WSW,240,8.0,8.0,92,0.00,,,0.00,Wunderground v.1.15,2013-06-23 00:10:00,
2013-06-22 20:20:00,64.6,62.5,30.15,SW,222,7.0,37.0,93,0.00,,,0.00,Wunderground v.1.15,2013-06-23 00:20:00,
2013-06-22 20:30:00,64.6,62.8,30.16,SSW,194,6.0,37.0,94,0.00,,,0.00,Wunderground v.1.15,2013-06-23 00:30:00,
2013-06-22 20:40:00,64.5,62.7,30.16,SSW,212,7.0,7.0,94,0.00,,,0.00,Wunderground v.1.15,2013-06-23 00:40:00,
2013-06-22 20:50:00,64.5,62.7,30.16,WSW,245,6.0,37.0,94,0.00,,,0.00,Wunderground v.1.15,2013-06-23 00:50:00,
2013-06-22 21:00:00,64.5,63.0,30.16,SSW,207,6.0,37.0,95,0.00,,,0.00,Wunderground v.1.15,2013-06-23 01:00:00,
2013-06-22 21:10:00,64.5,63.0,30.17,WSW,238,5.0,5.0,95,0.00,,,0.00,Wunderground v.1.15,2013-06-23 01:10:00,
2013-06-22 21:20:00,64.6,62.8,30.17,WSW,246,6.0,37.0,94,0.00,,,0.00,Wunderground v.1.15,2013-06-23 01:20:00,
2013-06-22 21:30:00,64.7,62.9,30.17,SW,226,6.0,37.0,94,0.00,,,0.00,Wunderground v.1.15,2013-06-23 01:30:00,
2013-06-22 21:40:00,64.7,62.9,30.17,SSW,197,7.0,7.0,94,0.00,,,0.00,Wunderground v.1.15,2013-06-23 01:40:00,
2013-06-22 21:50:00,64.7,62.9,30.17,WSW,253,6.0,37.0,94,0.00,,,0.00,Wunderground v.1.15,2013-06-23 01:50:00,
2013-06-22 22:00:00,64.7,62.9,30.17,SW,225,7.0,7.0,94,0.00,,,0.00,Wunderground v.1.15,2013-06-23 02:00:00,
2013-06-22 22:10:00,64.7,62.9,30.17,WSW,247,6.0,37.0,94,0.00,,,0.00,Wunderground v.1.15,2013-06-23 02:10:00,
2013-06-22 22:20:00,64.7,62.9,30.17,SW,215,7.0,7.0,94,0.00,,,0.00,Wunderground v.1.15,2013-06-23 02:20:00,
2013-06-22 22:30:00,64.7,62.9,30.17,WSW,252,6.0,37.0,94,0.00,,,0.00,Wunderground v.1.15,2013-06-23 02:30:00,
2013-06-22 22:40:00,64.8,63.0,30.17,SW,233,7.0,37.0,94,0.00,,,0.00,Wunderground v.1.15,2013-06-23 02:40:00,
2013-06-22 22:50:00,64.8,63.0,30.17,SW,218,7.0,7.0,94,0.00,,,0.00,Wunderground v.1.15,2013-06-23 02:50:00,
2013-06-22 23:00:00,64.8,63.0,30.17,SW,228,6.0,6.0,94,0.00,,,0.00,Wunderground v.1.15,2013-06-23 03:00:00,
2013-06-22 23:10:00,64.8,63.0,30.17,SW,225,7.0,7.0,94,0.00,,,0.00,Wunderground v.1.15,2013-06-23 03:10:00,
2013-06-22 23:20:00,64.9,63.1,30.18,SW,231,6.0,37.0,94,0.00,,,0.00,Wunderground v.1.15,2013-06-23 03:20:00,
2013-06-22 23:30:00,64.9,63.1,30.17,WSW,240,7.0,37.0,94,0.00,,,0.00,Wunderground v.1.15,2013-06-23 03:30:00,
2013-06-22 23:40:00,64.9,63.1,30.17,SSE,160,6.0,6.0,94,0.00,,,0.00,Wunderground v.1.15,2013-06-23 03:40:00,
2013-06-22 23:50:00,65.0,63.2,30.17,South,186,7.0,7.0,94,0.00,,,0.00,Wunderground v.1.15,2013-06-23 03:50:00,